Time,TemperatureF,DewpointF,PressureIn,WindDirection,WindDirectionDegrees,WindSpeedMPH,WindSpeedGustMPH,Humidity,HourlyPrecipIn,Conditions,Clouds,dailyrainin,SoftwareType,DateUTC
2013-01-19 00:00:00,18.7,-5.7,30.37,SW,216,0.0,0.0,33,0.00,CLR,,0.00,WeatherDisplay:10.37,2013-01-19 05:00:00,
2013-01-19 00:02:00,18.7,-5.7,30.37,SW,216,0.0,0.0,33,0.00,CLR,,0.00,WeatherDisplay:10.37,2013-01-19 05:02:00,
2013-01-19 00:03:00,18.7,-5.7,30.37,SSW,195,0.0,0.0,33,0.00,CLR,,0.00,WeatherDisplay:10.37,2013-01-19 05:03:00,
2013-01-19 00:04:00,18.9,-5.6,30.37,SSW,195,0.0,0.0,33,0.00,CLR,,0.00,WeatherDisplay:10.37,2013-01-19 05:04:00,
2013-01-19 00:09:00,18.9,-5.6,30.37,SSW,193,0.0,0.0,33,0.00,CLR,,0.00,WeatherDisplay:10.37,2013-01-19 05:09:00,
2013-01-19 00:14:00,19.4,-5.1,30.37,SSW,203,0.0,0.0,33,0.00,CLR,,0.00,WeatherDisplay:10.37,2013-01-19 05:14:00,
2013-01-19 00:19:00,19.6,-5.6,30.37,South,176,0.0,0.0,32,0.00,CLR,,0.00,WeatherDisplay:10.37,2013-01-19 05:19:00,
2013-01-19 00:24:00,19.6,-3.7,30.37,South,176,0.0,0.0,35,0.00,CLR,,0.00,WeatherDisplay:10.37,2013-01-19 05:24:00,
2013-01-19 00:29:00,19.8,-5.4,30.34,South,185,0.0,0.0,32,0.00,CLR,,0.00,WeatherDisplay:10.37,2013-01-19 05:29:00,
2013-01-19 00:34:00,20.1,-5.1,30.34,SW,229,2.3,0.0,32,0.00,CLR,,0.00,WeatherDisplay:10.37,2013-01-19 05:34:00,
2013-01-19 00:39:00,20.1,-5.1,30.34,SSW,199,2.3,0.0,32,0.00,CLR,,0.00,WeatherDisplay:10.37,2013-01-19 05:39:00,
2013-01-19 00:44:00,20.3,-4.9,30.34,ESE,122,0.0,0.0,32,0.00,CLR,,0.00,WeatherDisplay:10.37,2013-01-19 05:44:00,
2013-01-19 00:49:00,20.3,-4.9,30.34,ENE,78,0.0,0.0,32,0.00,CLR,,0.00,WeatherDisplay:10.37,2013-01-19 05:49:00,
2013-01-19 00:54:00,20.3,-4.9,30.34,ESE,122,0.0,0.0,32,0.00,CLR,,0.00,WeatherDisplay:10.37,2013-01-19 05:54:00,
2013-01-19 00:59:00,20.3,-4.9,30.34,South,191,2.3,0.0,32,0.00,CLR,,0.00,WeatherDisplay:10.37,2013-01-19 05:59:00,
2013-01-19 01:04:00,20.8,-4.4,30.34,SSW,203,2.3,0.0,32,0.00,CLR,,0.00,WeatherDisplay:10.37,2013-01-19 06:04:00,
2013-01-19 01:09:00,21.0,-4.3,30.34,SSE,165,0.0,0.0,32,0.00,CLR,,0.00,WeatherDisplay:10.37,2013-01-19 06:09:00,
2013-01-19 01:14:00,21.2,-4.1,30.34,SSW,195,0.0,0.0,32,0.00,CLR,,0.00,WeatherDisplay:10.37,2013-01-19 06:14:00,
2013-01-19 01:19:00,21.2,-4.1,30.34,SSW,208,0.0,0.0,32,0.00,CLR,,0.00,WeatherDisplay:10.37,2013-01-19 06:19:00,
2013-01-19 01:24:00,21.2,-4.1,30.34,SSW,201,0.0,0.0,32,0.00,CLR,,0.00,WeatherDisplay:10.37,2013-01-19 06:24:00,
2013-01-19 01:29:00,21.6,-3.8,30.31,SSE,167,0.0,0.0,32,0.00,CLR,,0.00,WeatherDisplay:10.37,2013-01-19 06:29:00,
2013-01-19 01:34:00,21.6,-3.8,30.31,SSE,156,0.0,0.0,32,0.00,CLR,,0.00,WeatherDisplay:10.37,2013-01-19 06:34:00,
2013-01-19 01:39:00,21.7,-3.6,30.31,SW,217,0.0,0.0,32,0.00,CLR,,0.00,WeatherDisplay:10.37,2013-01-19 06:39:00,
2013-01-19 01:44:00,21.9,-3.5,30.31,South,188,0.0,0.0,32,0.00,CLR,,0.00,WeatherDisplay:10.37,2013-01-19 06:44:00,
2013-01-19 01:49:00,21.9,-3.5,30.31,SW,232,0.0,0.0,32,0.00,CLR,,0.00,WeatherDisplay:10.37,2013-01-19 06:49:00,
2013-01-19 01:54:00,22.1,-3.3,30.31,SW,227,2.3,0.0,32,0.00,CLR,,0.00,WeatherDisplay:10.37,2013-01-19 06:54:00,
2013-01-19 01:59:00,22.1,-3.3,30.31,South,181,3.5,0.0,32,0.00,CLR,,0.00,WeatherDisplay:10.37,2013-01-19 06:59:00,
2013-01-19 02:04:00,22.3,-3.2,30.31,South,189,3.5,0.0,32,0.00,CLR,,0.00,WeatherDisplay:10.37,2013-01-19 07:04:00,
2013-01-19 02:09:00,22.3,-3.2,30.31,SE,143,3.5,0.0,32,0.00,CLR,,0.00,WeatherDisplay:10.37,2013-01-19 07:09:00,
2013-01-19 02:14:00,22.3,-3.2,30.31,WSW,254,0.0,0.0,32,0.00,CLR,,0.00,WeatherDisplay:10.37,2013-01-19 07:14:00,
2013-01-19 02:19:00,22.3,-3.2,30.31,SSW,212,2.3,0.0,32,0.00,CLR,,0.00,WeatherDisplay:10.37,2013-01-19 07:19:00,
2013-01-19 02:24:00,22.5,-3.0,30.31,SE,128,3.5,0.0,32,0.00,CLR,,0.00,WeatherDisplay:10.37,2013-01-19 07:24:00,
2013-01-19 02:29:00,22.5,-3.0,30.31,South,176,0.0,0.0,32,0.00,CLR,,0.00,WeatherDisplay:10.37,2013-01-19 07:29:00,
2013-01-19 02:34:00,22.3,-3.2,30.31,SSW,194,0.0,0.0,32,0.00,CLR,,0.00,WeatherDisplay:10.37,2013-01-19 07:34:00,
2013-01-19 02:39:00,22.3,-3.2,30.31,ESE,112,0.0,0.0,32,0.00,CLR,,0.00,WeatherDisplay:10.37,2013-01-19 07:39:00,
2013-01-19 02:44:00,22.3,-3.2,30.31,South,184,0.0,0.0,32,0.00,CLR,,0.00,WeatherDisplay:10.37,2013-01-19 07:44:00,
2013-01-19 02:49:00,22.3,-3.2,30.31,SSW,196,0.0,0.0,32,0.00,CLR,,0.00,WeatherDisplay:10.37,2013-01-19 07:49:00,
2013-01-19 02:54:00,22.3,-3.2,30.31,SW,214,2.3,0.0,32,0.00,CLR,,0.00,WeatherDisplay:10.37,2013-01-19 07:54:00,
2013-01-19 02:59:00,22.3,-3.2,30.28,SSW,192,0.0,0.0,32,0.00,CLR,,0.00,WeatherDisplay:10.37,2013-01-19 07:59:00,
2013-01-19 03:04:00,22.5,-3.0,30.28,ESE,120,0.0,0.0,32,0.00,CLR,,0.00,WeatherDisplay:10.37,2013-01-19 08:04:00,
2013-01-19 03:09:00,22.5,-3.0,30.28,NW,324,0.0,0.0,32,0.00,CLR,,0.00,WeatherDisplay:10.37,2013-01-19 08:09:00,
2013-01-19 03:14:00,22.3,-3.2,30.28,SW,220,0.0,0.0,32,0.00,CLR,,0.00,WeatherDisplay:10.37,2013-01-19 08:14:00,
2013-01-19 03:19:00,22.5,-3.0,30.28,SW,228,0.0,0.0,32,0.00,CLR,,0.00,WeatherDisplay:10.37,2013-01-19 08:19:00,
2013-01-19 03:24:00,22.8,-2.7,30.28,SSW,200,0.0,0.0,32,0.00,CLR,,0.00,WeatherDisplay:10.37,2013-01-19 08:24:00,
2013-01-19 03:29:00,22.8,-2.7,30.28,SSW,200,0.0,0.0,32,0.00,CLR,,0.00,WeatherDisplay:10.37,2013-01-19 08:29:00,
2013-01-19 03:34:00,22.8,-2.7,30.28,South,169,0.0,0.0,32,0.00,CLR,,0.00,WeatherDisplay:10.37,2013-01-19 08:34:00,
2013-01-19 03:39:00,23.0,-2.5,30.25,South,169,0.0,0.0,32,0.00,CLR,,0.00,WeatherDisplay:10.37,2013-01-19 08:39:00,
2013-01-19 03:44:00,23.0,-2.5,30.25,South,169,0.0,0.0,32,0.00,CLR,,0.00,WeatherDisplay:10.37,2013-01-19 08:44:00,
2013-01-19 03:49:00,23.2,-2.4,30.25,SW,223,0.0,0.0,32,0.00,CLR,,0.00,WeatherDisplay:10.37,2013-01-19 08:49:00,
2013-01-19 03:54:00,23.2,-2.4,30.25,SW,223,0.0,0.0,32,0.00,CLR,,0.00,WeatherDisplay:10.37,2013-01-19 08:54:00,
2013-01-19 03:59:00,23.2,-2.4,30.25,South,171,0.0,0.0,32,0.00,CLR,,0.00,WeatherDisplay:10.37,2013-01-19 08:59:00,
2013-01-19 04:04:00,23.2,-2.4,30.25,SSW,203,0.0,0.0,32,0.00,CLR,,0.00,WeatherDisplay:10.37,2013-01-19 09:04:00,
2013-01-19 04:09:00,23.4,-2.2,30.25,SSW,199,0.0,0.0,32,0.00,CLR,,0.00,WeatherDisplay:10.37,2013-01-19 09:09:00,
2013-01-19 04:14:00,23.5,-2.1,30.25,South,191,0.0,0.0,32,0.00,CLR,,0.00,WeatherDisplay:10.37,2013-01-19 09:14:00,
2013-01-19 04:19:00,23.5,-2.1,30.25,SE,128,3.5,3.5,32,0.00,CLR,,0.00,WeatherDisplay:10.37,2013-01-19 09:19:00,
2013-01-19 04:24:00,23.7,-1.9,30.25,SW,230,2.3,0.0,32,0.00,CLR,,0.00,WeatherDisplay:10.37,2013-01-19 09:24:00,
2013-01-19 04:29:00,23.7,-1.9,30.25,SSW,199,0.0,0.0,32,0.00,CLR,,0.00,WeatherDisplay:10.37,2013-01-19 09:29:00,
2013-01-19 04:34:00,23.7,-1.9,30.22,East,96,0.0,0.0,32,0.00,CLR,,0.00,WeatherDisplay:10.37,2013-01-19 09:34:00,
2013-01-19 04:39:00,24.1,-1.6,30.22,SW,214,2.3,0.0,32,0.00,CLR,,0.00,WeatherDisplay:10.37,2013-01-19 09:39:00,
2013-01-19 04:44:00,24.1,-1.6,30.22,SSW,208,0.0,0.0,32,0.00,CLR,,0.00,WeatherDisplay:10.37,2013-01-19 09:44:00,
2013-01-19 04:49:00,24.1,-1.6,30.22,SW,223,2.3,0.0,32,0.00,CLR,,0.00,WeatherDisplay:10.37,2013-01-19 09:49:00,
2013-01-19 04:54:00,24.3,-1.4,30.22,NNW,346,0.0,0.0,32,0.00,CLR,,0.00,WeatherDisplay:10.37,2013-01-19 09:54:00,
2013-01-19 04:59:00,24.3,-1.4,30.22,SSW,212,0.0,0.0,32,0.00,CLR,,0.00,WeatherDisplay:10.37,2013-01-19 09:59:00,
2013-01-19 05:04:00,25.0,-1.5,30.22,SSW,204,0.0,0.0,31,0.00,CLR,,0.00,WeatherDisplay:10.37,2013-01-19 10:04:00,
2013-01-19 05:09:00,25.3,-1.1,30.22,SW,214,0.0,0.0,31,0.00,CLR,,0.00,WeatherDisplay:10.37,2013-01-19 10:09:00,
2013-01-19 05:14:00,25.9,-0.7,30.22,SW,223,2.3,2.3,31,0.00,CLR,,0.00,WeatherDisplay:10.37,2013-01-19 10:14:00,
2013-01-19 05:19:00,25.9,-0.7,30.22,WSW,255,3.5,0.0,31,0.00,CLR,,0.00,WeatherDisplay:10.37,2013-01-19 10:19:00,
2013-01-19 05:24:00,26.1,-0.5,30.22,WSW,258,0.0,0.0,31,0.00,CLR,,0.00,WeatherDisplay:10.37,2013-01-19 10:24:00,
2013-01-19 05:29:00,26.1,-0.5,30.22,North,357,0.0,0.0,31,0.00,CLR,,0.00,WeatherDisplay:10.37,2013-01-19 10:29:00,
2013-01-19 05:34:00,26.1,-0.5,30.22,SSW,202,0.0,0.0,31,0.00,CLR,,0.00,WeatherDisplay:10.37,2013-01-19 10:34:00,
2013-01-19 05:39:00,26.1,-0.5,30.22,North,350,0.0,0.0,31,0.00,CLR,,0.00,WeatherDisplay:10.37,2013-01-19 10:39:00,
2013-01-19 05:44:00,26.2,-0.3,30.22,SSW,209,0.0,0.0,31,0.00,CLR,,0.00,WeatherDisplay:10.37,2013-01-19 10:44:00,
2013-01-19 05:49:00,26.2,-0.3,30.22,SSW,213,3.5,0.0,31,0.00,CLR,,0.00,WeatherDisplay:10.37,2013-01-19 10:49:00,
2013-01-19 05:54:00,26.2,-0.3,30.19,South,173,0.0,0.0,31,0.00,CLR,,0.00,WeatherDisplay:10.37,2013-01-19 10:54:00,
2013-01-19 05:59:00,26.2,-0.3,30.19,WSW,237,2.3,0.0,31,0.00,CLR,,0.00,WeatherDisplay:10.37,2013-01-19 10:59:00,
2013-01-19 06:04:00,26.2,-0.3,30.19,SW,214,3.5,0.0,31,0.00,CLR,,0.00,WeatherDisplay:10.37,2013-01-19 11:04:00,
2013-01-19 06:09:00,27.0,0.3,30.19,SSW,211,3.5,0.0,31,0.00,CLR,,0.00,WeatherDisplay:10.37,2013-01-19 11:09:00,
2013-01-19 07:47:00,28.9,1.3,30.17,SW,230,0.0,2.2,30,0.00,CLR,,0.00,WeatherDisplay:10.37,2013-01-19 12:47:00,
2013-01-19 07:48:00,28.9,1.3,30.17,SW,226,2.3,0.0,30,0.00,CLR,,0.00,WeatherDisplay:10.37,2013-01-19 12:48:00,
2013-01-19 07:49:00,28.9,1.3,30.17,SSW,211,2.3,0.0,30,0.00,CLR,,0.00,WeatherDisplay:10.37,2013-01-19 12:49:00,
2013-01-19 07:54:00,29.5,1.8,30.17,West,272,4.6,4.6,30,0.00,CLR,,0.00,WeatherDisplay:10.37,2013-01-19 12:54:00,
2013-01-19 07:59:00,30.0,2.3,30.17,NNE,16,0.0,0.0,30,0.00,CLR,,0.00,WeatherDisplay:10.37,2013-01-19 12:59:00,
2013-01-19 08:04:00,30.2,2.4,30.17,SW,236,2.3,0.0,30,0.00,CLR,,0.00,WeatherDisplay:10.37,2013-01-19 13:04:00,
2013-01-19 08:09:00,30.4,2.6,30.17,WSW,242,0.0,0.0,30,0.00,CLR,,0.00,WeatherDisplay:10.37,2013-01-19 13:09:00,
2013-01-19 08:14:00,30.7,2.9,30.17,WNW,288,3.5,0.0,30,0.00,CLR,,0.00,WeatherDisplay:10.37,2013-01-19 13:14:00,
2013-01-19 08:19:00,31.1,3.2,30.17,ESE,109,0.0,0.0,30,0.00,CLR,,0.00,WeatherDisplay:10.37,2013-01-19 13:19:00,
2013-01-19 08:24:00,32.4,4.3,30.17,WSW,258,3.5,0.0,30,0.00,CLR,,0.00,WeatherDisplay:10.37,2013-01-19 13:24:00,
2013-01-19 08:29:00,32.2,4.2,30.17,SSW,213,3.5,0.0,30,0.00,CLR,,0.00,WeatherDisplay:10.37,2013-01-19 13:29:00,
2013-01-19 08:34:00,32.2,4.2,30.17,SW,236,2.3,0.0,30,0.00,CLR,,0.00,WeatherDisplay:10.37,2013-01-19 13:34:00,
2013-01-19 08:39:00,32.0,4.0,30.17,NNE,13,3.5,3.5,30,0.00,CLR,,0.00,WeatherDisplay:10.37,2013-01-19 13:39:00,
2013-01-19 08:44:00,32.2,4.2,30.17,West,259,0.0,0.0,30,0.00,CLR,,0.00,WeatherDisplay:10.37,2013-01-19 13:44:00,
2013-01-19 08:49:00,32.4,4.3,30.17,SW,231,0.0,0.0,30,0.00,CLR,,0.00,WeatherDisplay:10.37,2013-01-19 13:49:00,
2013-01-19 08:54:00,32.5,4.5,30.17,NW,312,0.0,0.0,30,0.00,CLR,,0.00,WeatherDisplay:10.37,2013-01-19 13:54:00,
2013-01-19 08:59:00,32.7,4.6,30.17,SW,225,0.0,0.0,30,0.00,CLR,,0.00,WeatherDisplay:10.37,2013-01-19 13:59:00,
2013-01-19 09:04:00,33.3,5.1,30.17,SW,219,0.0,0.0,30,0.00,CLR,,0.00,WeatherDisplay:10.37,2013-01-19 14:04:00,
2013-01-19 09:09:00,33.4,5.3,30.17,SW,227,5.8,0.0,30,0.00,CLR,,0.00,WeatherDisplay:10.37,2013-01-19 14:09:00,
2013-01-19 09:14:00,33.8,5.6,30.17,SSW,197,3.5,3.5,30,0.00,CLR,,0.00,WeatherDisplay:10.37,2013-01-19 14:14:00,
2013-01-19 09:19:00,34.3,6.1,30.17,South,182,2.3,2.3,30,0.00,CLR,,0.00,WeatherDisplay:10.37,2013-01-19 14:19:00,
2013-01-19 09:24:00,34.5,6.2,30.14,ENE,69,2.3,0.0,30,0.00,CLR,,0.00,WeatherDisplay:10.37,2013-01-19 14:24:00,
2013-01-19 09:29:00,34.9,6.5,30.14,SW,233,2.3,0.0,30,0.00,CLR,,0.00,WeatherDisplay:10.37,2013-01-19 14:29:00,
2013-01-19 09:34:00,35.1,6.7,30.14,WSW,245,2.3,0.0,30,0.00,CLR,,0.00,WeatherDisplay:10.37,2013-01-19 14:34:00,
2013-01-19 09:40:00,35.2,6.8,30.14,West,274,3.5,3.5,30,0.00,CLR,,0.00,WeatherDisplay:10.37,2013-01-19 14:40:00,
2013-01-19 09:45:00,35.6,6.4,30.14,WSW,258,2.3,0.0,29,0.00,CLR,,0.00,WeatherDisplay:10.37,2013-01-19 14:45:00,
2013-01-19 09:50:00,35.6,6.4,30.14,WSW,258,5.8,5.8,29,0.00,CLR,,0.00,WeatherDisplay:10.37,2013-01-19 14:50:00,
2013-01-19 09:55:00,36.3,7.0,30.14,SW,229,5.8,5.8,29,0.00,CLR,,0.00,WeatherDisplay:10.37,2013-01-19 14:55:00,
2013-01-19 10:00:00,36.3,7.0,30.14,WNW,295,3.5,0.0,29,0.00,CLR,,0.00,WeatherDisplay:10.37,2013-01-19 15:00:00,
2013-01-19 10:05:00,36.7,7.4,30.14,SSW,207,3.5,3.5,29,0.00,CLR,,0.00,WeatherDisplay:10.37,2013-01-19 15:05:00,
2013-01-19 10:10:00,36.9,7.5,30.14,SW,229,5.8,0.0,29,0.00,CLR,,0.00,WeatherDisplay:10.37,2013-01-19 15:10:00,
2013-01-19 10:15:00,37.2,7.8,30.14,West,268,3.5,3.6,29,0.00,CLR,,0.00,WeatherDisplay:10.37,2013-01-19 15:15:00,
2013-01-19 10:20:00,37.6,8.1,30.14,SW,216,3.5,3.5,29,0.00,CLR,,0.00,WeatherDisplay:10.37,2013-01-19 15:20:00,
2013-01-19 10:25:00,37.9,8.5,30.14,South,189,5.8,5.8,29,0.00,CLR,,0.00,WeatherDisplay:10.37,2013-01-19 15:25:00,
2013-01-19 10:30:00,38.1,8.6,30.14,WNW,294,2.3,3.1,29,0.00,CLR,,0.00,WeatherDisplay:10.37,2013-01-19 15:30:00,
2013-01-19 10:35:00,38.7,9.1,30.14,SW,214,5.8,5.8,29,0.00,CLR,,0.00,WeatherDisplay:10.37,2013-01-19 15:35:00,
2013-01-19 10:40:00,38.5,8.9,30.11,SSE,157,9.2,9.2,29,0.00,CLR,,0.00,WeatherDisplay:10.37,2013-01-19 15:40:00,
2013-01-19 10:45:00,38.7,9.1,30.11,West,267,5.8,5.8,29,0.00,CLR,,0.00,WeatherDisplay:10.37,2013-01-19 15:45:00,
2013-01-19 10:50:00,38.7,9.1,30.11,SSW,209,5.8,5.8,29,0.00,CLR,,0.00,WeatherDisplay:10.37,2013-01-19 15:50:00,
2013-01-19 10:55:00,39.7,9.2,30.11,SSW,210,5.8,5.8,28,0.00,CLR,,0.00,WeatherDisplay:10.37,2013-01-19 15:55:00,
2013-01-19 11:00:00,39.6,9.1,30.11,SSW,211,2.3,2.3,28,0.00,CLR,,0.00,WeatherDisplay:10.37,2013-01-19 16:00:00,
2013-01-19 11:05:00,39.6,9.1,30.11,WSW,239,3.5,3.5,28,0.00,CLR,,0.00,WeatherDisplay:10.37,2013-01-19 16:05:00,
2013-01-19 11:10:00,39.6,9.1,30.08,West,267,3.5,3.5,28,0.00,CLR,,0.00,WeatherDisplay:10.37,2013-01-19 16:10:00,
2013-01-19 11:15:00,39.9,9.4,30.08,West,274,8.1,8.1,28,0.00,CLR,,0.00,WeatherDisplay:10.37,2013-01-19 16:15:00,
2013-01-19 11:20:00,40.5,9.9,30.08,WSW,245,5.8,5.8,28,0.00,CLR,,0.00,WeatherDisplay:10.37,2013-01-19 16:20:00,
2013-01-19 11:25:00,40.6,10.0,30.08,West,272,8.1,8.1,28,0.00,CLR,,0.00,WeatherDisplay:10.37,2013-01-19 16:25:00,
2013-01-19 11:30:00,40.6,10.0,30.08,WSW,251,5.8,5.8,28,0.00,CLR,,0.00,WeatherDisplay:10.37,2013-01-19 16:30:00,
2013-01-19 11:35:00,41.4,12.9,30.08,WNW,292,10.4,10.4,31,0.00,CLR,,0.00,WeatherDisplay:10.37,2013-01-19 16:35:00,
2013-01-19 11:40:00,42.4,11.6,30.08,South,184,4.6,4.6,28,0.00,CLR,,0.00,WeatherDisplay:10.37,2013-01-19 16:40:00,
2013-01-19 11:45:00,44.8,12.8,30.08,West,259,5.8,5.8,27,0.00,CLR,,0.00,WeatherDisplay:10.37,2013-01-19 16:45:00,
2013-01-19 11:50:00,45.1,13.1,30.08,SSE,155,5.8,5.8,27,0.00,CLR,,0.00,WeatherDisplay:10.37,2013-01-19 16:50:00,
2013-01-19 11:55:00,42.6,11.7,30.05,WSW,237,8.1,8.1,28,0.00,CLR,,0.00,WeatherDisplay:10.37,2013-01-19 16:55:00,
2013-01-19 12:00:00,42.3,11.4,30.05,SW,222,5.8,5.8,28,0.00,CLR,,0.00,WeatherDisplay:10.37,2013-01-19 17:00:00,
2013-01-19 12:05:00,42.3,11.4,30.05,West,280,8.1,8.1,28,0.00,CLR,,0.00,WeatherDisplay:10.37,2013-01-19 17:05:00,
2013-01-19 12:10:00,42.1,11.3,30.05,WSW,237,3.5,4.0,28,0.00,CLR,,0.00,WeatherDisplay:10.37,2013-01-19 17:10:00,
2013-01-19 12:17:00,42.4,11.6,30.05,SW,214,5.8,5.8,28,0.00,CLR,,0.00,WeatherDisplay:10.37,2013-01-19 17:17:00,
2013-01-19 12:22:00,43.9,12.8,30.02,SW,234,3.5,3.5,28,0.00,CLR,,0.00,WeatherDisplay:10.37,2013-01-19 17:22:00,
2013-01-19 12:27:00,44.8,12.8,30.02,West,273,12.7,12.7,27,0.00,CLR,,0.00,WeatherDisplay:10.37,2013-01-19 17:27:00,
2013-01-19 12:32:00,43.9,12.8,30.02,West,261,8.1,8.1,28,0.00,CLR,,0.00,WeatherDisplay:10.37,2013-01-19 17:32:00,
2013-01-19 12:37:00,46.2,14.0,30.02,SSW,204,3.5,4.0,27,0.00,CLR,,0.00,WeatherDisplay:10.37,2013-01-19 17:37:00,
2013-01-19 12:43:00,44.6,15.0,30.02,West,275,5.8,5.8,30,0.00,CLR,,0.00,WeatherDisplay:10.37,2013-01-19 17:43:00,
2013-01-19 12:48:00,44.8,12.8,30.02,SW,222,5.8,5.8,27,0.00,CLR,,0.00,WeatherDisplay:10.37,2013-01-19 17:48:00,
2013-01-19 12:53:00,47.5,15.1,30.02,SSW,210,3.5,3.5,27,0.00,CLR,,0.00,WeatherDisplay:10.37,2013-01-19 17:53:00,
2013-01-19 12:58:00,50.5,16.9,30.02,South,185,3.5,3.5,26,0.00,CLR,,0.00,WeatherDisplay:10.37,2013-01-19 17:58:00,
2013-01-19 13:03:00,51.3,17.5,30.02,SW,219,5.8,5.8,26,0.00,CLR,,0.00,WeatherDisplay:10.37,2013-01-19 18:03:00,
2013-01-19 13:09:00,49.5,15.9,30.02,NNW,331,4.6,4.6,26,0.00,CLR,,0.00,WeatherDisplay:10.37,2013-01-19 18:09:00,
2013-01-19 13:14:00,47.3,15.0,30.02,WSW,252,5.8,5.8,27,0.00,CLR,,0.00,WeatherDisplay:10.37,2013-01-19 18:14:00,
2013-01-19 13:22:00,46.6,14.3,30.02,SSW,193,4.6,4.6,27,0.00,CLR,,0.00,WeatherDisplay:10.37,2013-01-19 18:22:00,
2013-01-19 13:28:00,45.3,13.2,30.02,SSW,205,5.8,5.8,27,0.00,CLR,,0.00,WeatherDisplay:10.37,2013-01-19 18:28:00,
2013-01-19 13:33:00,45.3,13.2,30.02,SW,230,2.3,2.7,27,0.00,CLR,,0.00,WeatherDisplay:10.37,2013-01-19 18:33:00,
2013-01-19 13:38:00,45.0,12.9,30.02,NNW,330,4.0,4.0,27,0.00,CLR,,0.00,WeatherDisplay:10.37,2013-01-19 18:38:00,
2013-01-19 13:43:00,44.1,13.0,29.99,North,353,4.6,4.6,28,0.00,CLR,,0.00,WeatherDisplay:10.37,2013-01-19 18:43:00,
2013-01-19 13:48:00,44.6,12.6,29.99,NW,324,3.5,0.0,27,0.00,CLR,,0.00,WeatherDisplay:10.37,2013-01-19 18:48:00,
2013-01-19 13:53:00,44.4,13.3,29.99,WSW,241,3.5,0.0,28,0.00,CLR,,0.00,WeatherDisplay:10.37,2013-01-19 18:53:00,
2013-01-19 13:59:00,44.6,12.6,29.99,West,267,2.3,3.1,27,0.00,CLR,,0.00,WeatherDisplay:10.37,2013-01-19 18:59:00,
2013-01-19 14:04:00,44.6,12.6,29.99,West,277,5.8,5.8,27,0.00,CLR,,0.00,WeatherDisplay:10.37,2013-01-19 19:04:00,
2013-01-19 14:10:00,44.6,12.6,29.99,WSW,256,3.5,3.5,27,0.00,CLR,,0.04,WeatherDisplay:10.37,2013-01-19 19:10:00,
2013-01-19 14:15:00,44.6,12.6,29.99,WNW,292,5.8,5.8,27,0.04,RA,,0.04,WeatherDisplay:10.37,2013-01-19 19:15:00,
2013-01-19 14:20:00,44.8,12.8,29.99,West,269,3.5,3.5,27,0.04,RA,,0.04,WeatherDisplay:10.37,2013-01-19 19:20:00,
2013-01-19 14:25:00,44.8,12.8,29.99,WSW,243,3.5,3.5,27,0.04,CLR,,0.04,WeatherDisplay:10.37,2013-01-19 19:25:00,
2013-01-19 14:30:00,45.0,12.9,29.99,WSW,250,5.8,5.8,27,0.04,CLR,,0.04,WeatherDisplay:10.37,2013-01-19 19:30:00,
2013-01-19 14:35:00,44.8,12.8,29.99,West,263,5.8,5.8,27,0.04,CLR,,0.04,WeatherDisplay:10.37,2013-01-19 19:35:00,
2013-01-19 14:40:00,45.0,12.9,29.99,West,281,0.0,4.9,27,0.04,CLR,,0.04,WeatherDisplay:10.37,2013-01-19 19:40:00,
2013-01-19 14:45:00,45.0,12.9,29.99,West,268,5.8,5.8,27,0.04,CLR,,0.04,WeatherDisplay:10.37,2013-01-19 19:45:00,
2013-01-19 14:50:00,45.5,13.4,29.99,West,279,8.1,8.1,27,0.04,CLR,,0.04,WeatherDisplay:10.37,2013-01-19 19:50:00,
2013-01-19 14:56:00,45.5,13.4,29.99,NW,319,5.8,5.8,27,0.04,CLR,,0.04,WeatherDisplay:10.37,2013-01-19 19:56:00,
2013-01-19 15:02:00,45.3,13.2,29.99,West,271,3.5,3.5,27,0.04,CLR,,0.04,WeatherDisplay:10.37,2013-01-19 20:02:00,
2013-01-19 15:07:00,45.1,13.1,29.99,WSW,247,3.5,3.5,27,0.04,CLR,,0.04,WeatherDisplay:10.37,2013-01-19 20:07:00,
2013-01-19 15:12:00,45.1,13.1,29.99,NNW,328,3.5,3.5,27,0.00,CLR,,0.04,WeatherDisplay:10.37,2013-01-19 20:12:00,
2013-01-19 15:17:00,45.1,13.1,29.99,SW,236,5.8,5.8,27,0.00,CLR,,0.04,WeatherDisplay:10.37,2013-01-19 20:17:00,
2013-01-19 15:22:00,45.0,12.9,29.99,WSW,258,3.5,3.6,27,0.00,CLR,,0.04,WeatherDisplay:10.37,2013-01-19 20:22:00,
2013-01-19 15:28:00,45.0,12.9,29.99,West,281,3.5,3.5,27,0.00,CLR,,0.04,WeatherDisplay:10.37,2013-01-19 20:28:00,
2013-01-19 15:33:00,44.8,12.8,29.99,WSW,244,3.5,3.5,27,0.00,CLR,,0.04,WeatherDisplay:10.37,2013-01-19 20:33:00,
2013-01-19 15:38:00,44.4,13.3,29.99,WSW,244,3.5,3.6,28,0.00,CLR,,0.04,WeatherDisplay:10.37,2013-01-19 20:38:00,
2013-01-19 15:43:00,44.2,13.1,29.99,West,265,5.8,5.8,28,0.00,CLR,,0.04,WeatherDisplay:10.37,2013-01-19 20:43:00,
2013-01-19 15:48:00,44.2,13.1,29.99,North,7,2.3,2.3,28,0.04,RA,,0.08,WeatherDisplay:10.37,2013-01-19 20:48:00,
2013-01-19 15:53:00,44.1,13.0,29.99,NNW,327,3.5,4.0,28,0.04,RA,,0.08,WeatherDisplay:10.37,2013-01-19 20:53:00,
2013-01-19 15:58:00,44.6,12.6,29.99,North,357,3.5,3.5,27,0.04,CLR,,0.08,WeatherDisplay:10.37,2013-01-19 20:58:00,
2013-01-19 16:03:00,44.6,12.6,29.99,SW,234,2.3,3.1,27,0.04,CLR,,0.08,WeatherDisplay:10.37,2013-01-19 21:03:00,
2013-01-19 16:08:00,44.2,13.1,29.99,WNW,290,3.5,3.5,28,0.04,CLR,,0.08,WeatherDisplay:10.37,2013-01-19 21:08:00,
2013-01-19 16:13:00,44.2,13.1,29.99,North,357,4.6,0.0,28,0.04,CLR,,0.08,WeatherDisplay:10.37,2013-01-19 21:13:00,
2013-01-19 16:18:00,43.7,12.7,29.99,WSW,241,0.0,0.0,28,0.04,CLR,,0.08,WeatherDisplay:10.37,2013-01-19 21:18:00,
2013-01-19 16:24:00,43.0,12.0,29.99,NW,304,0.0,2.7,28,0.04,CLR,,0.08,WeatherDisplay:10.37,2013-01-19 21:24:00,
2013-01-19 16:29:00,42.8,11.9,29.99,SW,230,3.1,3.1,28,0.04,CLR,,0.08,WeatherDisplay:10.37,2013-01-19 21:29:00,
2013-01-19 16:34:00,43.5,12.5,29.99,NNE,12,2.3,0.0,28,0.04,CLR,,0.08,WeatherDisplay:10.37,2013-01-19 21:34:00,
2013-01-19 16:40:00,42.4,11.6,29.99,West,278,3.5,3.6,28,0.04,CLR,,0.08,WeatherDisplay:10.37,2013-01-19 21:40:00,
2013-01-19 16:45:00,42.3,11.4,29.99,WSW,241,0.0,0.0,28,0.00,CLR,,0.08,WeatherDisplay:10.37,2013-01-19 21:45:00,
2013-01-19 16:50:00,41.9,11.1,29.99,SW,218,3.5,3.5,28,0.00,CLR,,0.08,WeatherDisplay:10.37,2013-01-19 21:50:00,
2013-01-19 16:55:00,41.5,13.1,29.99,West,277,3.5,3.5,31,0.00,CLR,,0.08,WeatherDisplay:10.37,2013-01-19 21:55:00,
2013-01-19 17:01:00,41.9,11.1,29.99,WSW,246,3.5,0.0,28,0.00,CLR,,0.08,WeatherDisplay:10.37,2013-01-19 22:01:00,
2013-01-19 17:07:00,41.5,10.8,29.99,WSW,249,3.5,0.0,28,0.00,CLR,,0.08,WeatherDisplay:10.37,2013-01-19 22:07:00,
2013-01-19 17:12:00,41.7,11.0,29.99,NW,317,2.3,2.7,28,0.00,CLR,,0.08,WeatherDisplay:10.37,2013-01-19 22:12:00,
2013-01-19 17:17:00,41.7,11.0,29.99,NW,313,0.0,0.0,28,0.00,CLR,,0.08,WeatherDisplay:10.37,2013-01-19 22:17:00,
2013-01-19 17:22:00,41.0,10.3,29.99,West,276,0.0,2.7,28,0.00,CLR,,0.08,WeatherDisplay:10.37,2013-01-19 22:22:00,
2013-01-19 17:27:00,41.0,10.3,29.99,WNW,285,2.3,0.0,28,0.00,CLR,,0.08,WeatherDisplay:10.37,2013-01-19 22:27:00,
2013-01-19 17:33:00,39.7,9.2,29.99,WNW,285,0.0,0.0,28,0.00,CLR,,0.08,WeatherDisplay:10.37,2013-01-19 22:33:00,
2013-01-19 17:39:00,39.0,9.4,29.99,WNW,303,0.0,0.0,29,0.00,CLR,,0.08,WeatherDisplay:10.37,2013-01-19 22:39:00,
2013-01-19 17:45:00,38.8,9.2,29.99,ENE,59,0.0,0.0,29,0.00,CLR,,0.08,WeatherDisplay:10.37,2013-01-19 22:45:00,
2013-01-19 17:50:00,38.7,9.1,29.99,ENE,62,0.0,0.0,29,0.00,CLR,,0.08,WeatherDisplay:10.37,2013-01-19 22:50:00,
2013-01-19 17:55:00,38.7,9.1,29.99,NNW,331,0.0,0.0,29,0.00,CLR,,0.08,WeatherDisplay:10.37,2013-01-19 22:55:00,
2013-01-19 18:00:00,38.5,8.9,29.99,SE,140,0.0,0.0,29,0.00,CLR,,0.08,WeatherDisplay:10.37,2013-01-19 23:00:00,
2013-01-19 18:06:00,38.3,8.8,29.99,SE,136,0.0,0.0,29,0.00,CLR,,0.08,WeatherDisplay:10.37,2013-01-19 23:06:00,
2013-01-19 18:11:00,38.3,8.8,29.99,NNE,18,2.3,0.0,29,0.00,CLR,,0.08,WeatherDisplay:10.37,2013-01-19 23:11:00,
2013-01-19 18:17:00,38.3,8.8,29.99,NE,56,3.6,0.0,29,0.00,CLR,,0.08,WeatherDisplay:10.37,2013-01-19 23:17:00,
2013-01-19 18:23:00,38.3,8.8,29.99,NE,51,0.0,0.0,29,0.00,CLR,,0.08,WeatherDisplay:10.37,2013-01-19 23:23:00,
2013-01-19 18:28:00,37.9,8.5,29.99,SSE,157,0.0,0.0,29,0.00,CLR,,0.08,WeatherDisplay:10.37,2013-01-19 23:28:00,
2013-01-19 18:34:00,37.6,8.1,29.99,SE,131,0.0,0.0,29,0.00,CLR,,0.08,WeatherDisplay:10.37,2013-01-19 23:34:00,
2013-01-19 18:39:00,37.4,8.0,29.99,NNW,328,0.0,0.0,29,0.00,CLR,,0.08,WeatherDisplay:10.37,2013-01-19 23:39:00,
2013-01-19 18:44:00,37.2,7.8,29.99,SE,137,0.0,0.0,29,0.00,CLR,,0.08,WeatherDisplay:10.37,2013-01-19 23:44:00,
2013-01-19 18:49:00,36.7,7.4,29.99,WSW,252,0.0,0.0,29,0.00,CLR,,0.08,WeatherDisplay:10.37,2013-01-19 23:49:00,
2013-01-19 18:54:00,36.3,7.0,29.99,WSW,252,0.0,0.0,29,0.00,CLR,,0.08,WeatherDisplay:10.37,2013-01-19 23:54:00,
2013-01-19 19:00:00,36.3,7.0,29.99,NW,314,0.0,0.0,29,0.00,CLR,,0.08,WeatherDisplay:10.37,2013-01-20 00:00:00,
2013-01-19 19:06:00,36.1,6.9,29.99,NW,314,0.0,0.0,29,0.00,CLR,,0.08,WeatherDisplay:10.37,2013-01-20 00:06:00,
2013-01-19 19:11:00,35.8,6.6,29.99,NNE,19,0.0,0.0,29,0.00,CLR,,0.08,WeatherDisplay:10.37,2013-01-20 00:11:00,
2013-01-19 19:16:00,35.8,6.6,29.99,WSW,250,0.0,0.0,29,0.00,CLR,,0.08,WeatherDisplay:10.37,2013-01-20 00:16:00,
2013-01-19 19:21:00,35.6,6.4,29.99,WSW,251,0.0,0.0,29,0.00,CLR,,0.08,WeatherDisplay:10.37,2013-01-20 00:21:00,
2013-01-19 19:27:00,35.4,7.0,29.99,NE,50,4.6,0.0,30,0.00,CLR,,0.08,WeatherDisplay:10.37,2013-01-20 00:27:00,
2013-01-19 19:32:00,35.1,6.7,29.99,ESE,122,3.5,0.0,30,0.00,CLR,,0.08,WeatherDisplay:10.37,2013-01-20 00:32:00,
2013-01-19 19:38:00,35.1,6.7,29.99,ESE,122,0.0,0.0,30,0.00,CLR,,0.08,WeatherDisplay:10.37,2013-01-20 00:38:00,
2013-01-19 19:43:00,34.7,6.4,29.99,NE,46,0.0,0.0,30,0.00,CLR,,0.08,WeatherDisplay:10.37,2013-01-20 00:43:00,
2013-01-19 19:48:00,34.5,6.2,29.99,NE,36,2.3,0.0,30,0.00,CLR,,0.08,WeatherDisplay:10.37,2013-01-20 00:48:00,
2013-01-19 19:53:00,34.3,6.1,29.99,NE,36,0.0,0.0,30,0.00,CLR,,0.08,WeatherDisplay:10.37,2013-01-20 00:53:00,
2013-01-19 19:58:00,34.2,5.9,29.99,NE,36,0.0,0.0,30,0.00,CLR,,0.08,WeatherDisplay:10.37,2013-01-20 00:58:00,
2013-01-19 20:04:00,34.2,5.9,29.99,ENE,62,0.0,0.0,30,0.00,CLR,,0.08,WeatherDisplay:10.37,2013-01-20 01:04:00,
2013-01-19 20:09:00,33.6,5.4,29.99,ENE,62,0.0,0.0,30,0.00,CLR,,0.08,WeatherDisplay:10.37,2013-01-20 01:09:00,
2013-01-19 20:14:00,33.3,5.1,29.99,ENE,62,0.0,0.0,30,0.00,CLR,,0.08,WeatherDisplay:10.37,2013-01-20 01:14:00,
2013-01-19 20:19:00,32.9,4.8,29.99,ENE,62,0.0,0.0,30,0.00,CLR,,0.08,WeatherDisplay:10.37,2013-01-20 01:19:00,
2013-01-19 20:25:00,32.7,4.6,29.96,ENE,62,0.0,0.0,30,0.00,CLR,,0.08,WeatherDisplay:10.37,2013-01-20 01:25:00,
2013-01-19 20:30:00,32.4,4.3,29.96,ENE,62,0.0,0.0,30,0.00,CLR,,0.08,WeatherDisplay:10.37,2013-01-20 01:30:00,
2013-01-19 20:35:00,31.8,3.9,29.96,ENE,62,0.0,0.0,30,0.00,CLR,,0.08,WeatherDisplay:10.37,2013-01-20 01:35:00,
2013-01-19 20:40:00,31.5,3.5,29.96,ENE,62,0.0,0.0,30,0.00,CLR,,0.08,WeatherDisplay:10.37,2013-01-20 01:40:00,
2013-01-19 20:45:00,31.3,3.4,29.96,ENE,62,0.0,0.0,30,0.00,CLR,,0.08,WeatherDisplay:10.37,2013-01-20 01:45:00,
2013-01-19 20:51:00,31.1,3.2,29.96,ENE,62,0.0,0.0,30,0.00,CLR,,0.08,WeatherDisplay:10.37,2013-01-20 01:51:00,
2013-01-19 20:56:00,30.9,3.1,29.96,ENE,62,0.0,0.0,30,0.00,CLR,,0.08,WeatherDisplay:10.37,2013-01-20 01:56:00,
2013-01-19 21:01:00,30.7,2.9,29.96,ENE,62,0.0,0.0,30,0.00,CLR,,0.08,WeatherDisplay:10.37,2013-01-20 02:01:00,
2013-01-19 21:07:00,30.6,2.7,29.96,ENE,62,0.0,0.0,30,0.00,CLR,,0.08,WeatherDisplay:10.37,2013-01-20 02:07:00,
2013-01-19 21:12:00,30.6,2.7,29.96,ENE,62,0.0,0.0,30,0.00,CLR,,0.08,WeatherDisplay:10.37,2013-01-20 02:12:00,
2013-01-19 21:18:00,30.6,2.7,29.96,ENE,62,0.0,0.0,30,0.00,CLR,,0.08,WeatherDisplay:10.37,2013-01-20 02:18:00,
2013-01-19 21:23:00,30.6,2.7,29.96,ENE,62,0.0,0.0,30,0.00,CLR,,0.08,WeatherDisplay:10.37,2013-01-20 02:23:00,
2013-01-19 21:28:00,30.4,2.6,29.96,ENE,62,0.0,0.0,30,0.00,CLR,,0.08,WeatherDisplay:10.37,2013-01-20 02:28:00,
2013-01-19 21:33:00,30.7,2.9,29.96,ENE,62,0.0,0.0,30,0.00,CLR,,0.08,WeatherDisplay:10.37,2013-01-20 02:33:00,
2013-01-19 21:39:00,30.7,2.9,29.96,ENE,62,0.0,0.0,30,0.00,CLR,,0.08,WeatherDisplay:10.37,2013-01-20 02:39:00,
2013-01-19 21:44:00,30.4,2.6,29.93,ENE,62,0.0,0.0,30,0.00,CLR,,0.08,WeatherDisplay:10.37,2013-01-20 02:44:00,
2013-01-19 21:49:00,30.2,2.4,29.93,ENE,62,0.0,0.0,30,0.00,CLR,,0.08,WeatherDisplay:10.37,2013-01-20 02:49:00,
2013-01-19 21:54:00,29.8,2.1,29.93,ENE,62,0.0,0.0,30,0.00,CLR,,0.08,WeatherDisplay:10.37,2013-01-20 02:54:00,
2013-01-19 21:59:00,29.8,2.1,29.93,ENE,62,0.0,0.0,30,0.00,CLR,,0.08,WeatherDisplay:10.37,2013-01-20 02:59:00,
2013-01-19 22:04:00,30.4,2.6,29.93,ENE,62,0.0,0.0,30,0.00,CLR,,0.08,WeatherDisplay:10.37,2013-01-20 03:04:00,
2013-01-19 22:09:00,30.4,2.6,29.93,ENE,62,0.0,0.0,30,0.00,CLR,,0.08,WeatherDisplay:10.37,2013-01-20 03:09:00,
2013-01-19 22:14:00,30.4,2.6,29.93,ENE,62,0.0,0.0,30,0.00,CLR,,0.08,WeatherDisplay:10.37,2013-01-20 03:14:00,
2013-01-19 22:20:00,30.0,4.3,29.93,ENE,62,0.0,0.0,33,0.00,CLR,,0.08,WeatherDisplay:10.37,2013-01-20 03:20:00,
2013-01-19 22:25:00,29.8,4.2,29.93,ENE,62,0.0,0.0,33,0.00,CLR,,0.08,WeatherDisplay:10.37,2013-01-20 03:25:00,
2013-01-19 22:30:00,29.7,4.0,29.93,ENE,62,0.0,0.0,33,0.00,CLR,,0.08,WeatherDisplay:10.37,2013-01-20 03:30:00,
2013-01-19 22:35:00,29.7,2.0,29.93,ENE,62,0.0,0.0,30,0.00,CLR,,0.08,WeatherDisplay:10.37,2013-01-20 03:35:00,
2013-01-19 22:40:00,29.7,2.0,29.90,ENE,62,0.0,0.0,30,0.00,CLR,,0.08,WeatherDisplay:10.37,2013-01-20 03:40:00,
2013-01-19 22:45:00,29.7,4.0,29.90,ENE,62,0.0,0.0,33,0.00,CLR,,0.08,WeatherDisplay:10.37,2013-01-20 03:45:00,
2013-01-19 22:50:00,30.2,4.5,29.90,ENE,62,0.0,0.0,33,0.00,CLR,,0.08,WeatherDisplay:10.37,2013-01-20 03:50:00,
2013-01-19 22:55:00,30.2,4.5,29.90,ESE,109,0.0,0.0,33,0.00,CLR,,0.08,WeatherDisplay:10.37,2013-01-20 03:55:00,
2013-01-19 23:00:00,30.4,4.7,29.90,ESE,109,0.0,0.0,33,0.00,CLR,,0.08,WeatherDisplay:10.37,2013-01-20 04:00:00,
2013-01-19 23:06:00,30.6,4.8,29.90,ESE,109,0.0,0.0,33,0.00,CLR,,0.08,WeatherDisplay:10.37,2013-01-20 04:06:00,
2013-01-19 23:11:00,30.6,4.8,29.90,ESE,109,0.0,0.0,33,0.00,CLR,,0.08,WeatherDisplay:10.37,2013-01-20 04:11:00,
2013-01-19 23:16:00,30.7,5.0,29.90,ESE,110,0.0,0.0,33,0.00,CLR,,0.08,WeatherDisplay:10.37,2013-01-20 04:16:00,
2013-01-19 23:21:00,30.7,5.0,29.90,ESE,109,0.0,0.0,33,0.00,CLR,,0.08,WeatherDisplay:10.37,2013-01-20 04:21:00,
2013-01-19 23:26:00,30.9,5.1,29.87,ESE,110,0.0,0.0,33,0.00,CLR,,0.08,WeatherDisplay:10.37,2013-01-20 04:26:00,
2013-01-19 23:33:00,31.1,5.3,29.87,ESE,109,0.0,0.0,33,0.00,CLR,,0.08,WeatherDisplay:10.37,2013-01-20 04:33:00,
2013-01-19 23:38:00,31.3,5.5,29.87,ESE,110,0.0,0.0,33,0.00,CLR,,0.08,WeatherDisplay:10.37,2013-01-20 04:38:00,
2013-01-19 23:43:00,31.3,5.5,29.87,ESE,110,0.0,0.0,33,0.00,CLR,,0.08,WeatherDisplay:10.37,2013-01-20 04:43:00,
2013-01-19 23:48:00,31.8,3.9,29.87,ESE,109,0.0,0.0,30,0.00,CLR,,0.08,WeatherDisplay:10.37,2013-01-20 04:48:00,
2013-01-19 23:53:00,32.2,6.3,29.87,ESE,109,0.0,0.0,33,0.00,CLR,,0.08,WeatherDisplay:10.37,2013-01-20 04:53:00,
2013-01-19 23:59:00,32.7,6.7,29.87,ESE,110,0.0,0.0,33,0.00,CLR,,0.08,WeatherDisplay:10.37,2013-01-20 04:59:00,